Skip to main content Skip to accessibility
This website is not compatible with your web browser. You should install a newer browser. If you live in Jersey and need help upgrading call the States of Jersey web team on 440099.
Homegov.je

Information and public services for the Island of Jersey

L'înformâtion et les sèrvices publyis pouor I'Île dé Jèrri

  • Choose the service you want to log in to:

  • gov.je

    Update your notification preferences

  • one.gov.je

    Access government services

  • CAESAR

    Clear goods through customs or claim relief

  • Talentlink

    View or update your States of Jersey job application

Local METARs

METAR EGJJ 281250Z 07014KT 030V100 CAVOK 19/08 Q1030

METAR EGJB 281250Z 06016KT CAVOK 16/11 Q1030

METAR EGJA 281150Z 07018KT 9999 SCT005 14/12 Q1031

METAR LFRD 281230Z AUTO 03012KT CAVOK 21/12 Q1028

METAR LFRC 281230Z AUTO 07013KT 040V110 CAVOK 16/09 Q1031

 

 

 

​Apologies to the disruption to normal service. Commercial Aviation Services are available from the Jersey Met Forecaster 01534 448765.

Times are in Greenwich Mean Time (GMT) and not British Summer Time (BST). They will be one hour different during BST.

Back to top
rating button